{"data":{"norad_id":59644,"intl_designator":"2024-082P","name":"STARLINK-31789","alt_names":[],"object_type":"PAYLOAD","status":"ACTIVE","operator":null,"country":"US","launch_date":"2024-05-03","launch_site_code":"AFETR","launch_vehicle":null,"mission":null,"orbit_class":"UNKNOWN","rcs_meters":null,"size_class":null,"mass_kg":null,"dimensions":null,"purposes":["comms"],"wikipedia_slug":null,"has_3d_model":false,"image_url":null,"decayed_at":null,"tle_current":{"epoch":"2026-09-21T00:00:14.207616Z","epoch_age_seconds":125028,"freshness":"FRESH","line1":"1 59644U 24082P   26264.00016444  .00009812  00000+0  36552-3 0  9996","line2":"2 59644  43.0015 116.6653 0001593 262.8058  97.2613 15.27587348134882","mean_motion":15.27587348,"eccentricity":0.0001593,"inclination_deg":43.0015,"raan_deg":116.6653,"arg_perigee_deg":262.8058,"mean_anomaly_deg":97.2613,"bstar":0.00036552,"rev_number":13488,"period_min":94.266295271778,"perigee_km":481.93411013232,"apogee_km":484.12007701253,"semimajor_km":6861.1640935724,"source":"CELESTRAK","updated_at":"2026-09-22T09:00:49.021381Z"}}}